601  
ASUS41 KBOX 251310  
RWRBOX  
 
REGIONAL WEATHER ROUNDUP  
NATIONAL WEATHER SERVICE TAUNTON MA  
800 AM EST SAT FEB 25 2017  
 
NOTE: "FAIR" INDICATES FEW OR NO CLOUDS BELOW 12,000 FEET WITH NO  
SIGNIFICANT WEATHER AND/OR S TO VISIBILITY
.  
 
MAZALL-251400-  
EASTERN MASSACHUSETTS  
 
CITY SKY/WX TMP DP RH WIND PRES REMARKS
 
BOSTON PTSUNNY 53 53 100 S12 29.85S  
BEVERLY FOG 50 50 100 SE9 29.85R VSB 1/8  
LAWRENCE PTSUNNY 59 56 89 VRB5 29.84S  
BEDFORD PTSUNNY 57 53 86 S12 29.82S  
BLUE HILL N/A 51 51 100 S15G21 29.84S  
NORWOOD CLOUDY 55 54 96 S7 29.85S  
MARSHFIELD PTSUNNY 54 54 100 S5 29.87R  
PLYMOUTH CLOUDY 52 51 97 S6 29.88R  
TAUNTON CLOUDY 53 51 93 S3 29.87R  
NEW BEDFORD FOG 51 50 96 SE3 29.87R VSB 1/4  

 
 
MAZALL-251400-  
CAPE COD AND THE ISLANDS  
 
CITY SKY/WX TMP DP RH WIND PRES REMARKS
 
FALMOUTH N/A N/A N/A N/A MISG N/A  
HYANNIS SUNNY 50 50 100 S6 29.87S  
CHATHAM MOSUNNY 51 50 96 S7 29.90S  
PROVINCETOWN SUNNY 52 52 100 S10 29.89R  
NANTUCKET PTSUNNY 48 46 93 SE8 29.89S  
MARTHAS VNYRD MOSUNNY 53 51 93 S8 29.87F  

 
 
MAZALL-251400-  
CENTRAL AND WESTERN MASSACHUSETTS  
 
CITY SKY/WX TMP DP RH WIND PRES REMARKS
 
WORCESTER FOG 54 53 97 S10 29.82S VSB 1/4  
FITCHBURG NOT AVBL  
ORANGE CLOUDY 57 56 96 S7 29.79S  
SPRINGFIELD CLOUDY 57 55 94 S13 29.78S  
WESTFIELD CLOUDY 56 56 100 S10 29.78S FOG  
NORTH ADAMS MOSUNNY 58 51 78 MISG 29.73S  
PITTSFIELD MOSUNNY 59 52 77 S13G21 29.72F  

 
 
RIZALL-251400-  
RHODE ISLAND  
 
CITY SKY/WX TMP DP RH WIND PRES REMARKS
 
PROVIDENCE FOG 50 49 96 SE7 29.86S VSB 1/4  
NEWPORT CLOUDY 52 52 100 S7 29.86R FOG  
SMITHFIELD FOG 50 50 100 VRB3 29.85S VSB 1/4  
WESTERLY FOG 51 48 89 SE6 29.85F VSB 1/4  

 
 
CTZALL-251400-  
CONNECTICUT  
 
CITY SKY/WX TMP DP RH WIND PRES REMARKS
 
BRADLEY INTL CLOUDY 56 55 97 S8 29.80R FOG  
HARTFORD CLOUDY 56 55 97 S12 29.80S  
BRIDGEPORT FOG 48 46 93 NE5 29.81S VSB<1/4  
DANBURY FOG 54 53 97 SE10 29.79S VSB 3/4  
GROTON FOG 50 49 96 E5 29.83F VSB 1  
NEW HAVEN FOG 50 50 100 E3 29.82R VSB 1/4  
CHESTER FOG 52 52 100 SE7 29.82S VSB<1/4  
MERIDEN FOG 55 53 93 S7 29.81R VSB 1/2  
WILLIMANTIC CLOUDY 56 54 93 S8 29.83S FOG  
OXFORD FOG 54 50 87 S6 29.82R VSB 1/4  

 
 
MEZ002-015-021-024-NHZ003-005-008-011-012-014-VTZ005-008-251400-  
NORTHERN NEW ENGLAND  
 
CITY SKY/WX TMP DP RH WIND PRES REMARKS
 
PORTLAND ME FOG 45 44 97 S5 29.84S VSB<1/4  
BANGOR ME FOG 36 36 100 CALM 29.88S VSB 1/4  
CONCORD NH CLOUDY 56 54 93 S10 29.81R  
MANCHESTER NH CLOUDY 59 54 83 S14 29.80S  
NASHUA NH CLOUDY 58 56 93 CALM 29.82R  
PORTSMOUTH NH FOG 49 48 99 SE12 29.82S VSB 1/16  
JAFFREY NH CLOUDY 53 52 96 S6 29.80S  
KEENE NH CLOUDY 58 54 86 S8 29.78S  
BURLINGTON VT PTSUNNY 56 52 86 S14 29.62F  
MT. WASHINGTON LGT RAIN 39 39 100 SW40G55 N/A VSB 1/16WCI 26  

 
 
NYZ052-076-251400-  
EASTERN NEW YORK  
 
CITY SKY/WX TMP DP RH WIND PRES REMARKS
 
ALBANY PTSUNNY 61 53 75 S20G28 29.68S  
NEW YORK CITY FOG 52 51 97 S5 29.77F VSB 1/4  

 
 
ANZALL-251400-  
MARINE OBSERVATIONS  
 
STATION/POSITION TIME TEMP WIND PRES VSBY WAVE
 
AIR SEA DIR/SP/G HT/PER  
(UTC) (F) (DEG/KT/KT) (MB) (MI) (FT/S)  
BOSTON BUOY 1150 44 43 140/ 16/ 17 1009.8 2/ 9  
BUZZARDS BAY 1200 47 160/ 19/ 19 1011.3R  
NANTUCKET SOUND 1150 45 40 140/ 8/ 10 1011.7 1  
MASS BAY-STELLWA 1204 43 41 160/ 14/ 17 1009.7R  
ISLE OF SHOALS 1200 45 160/ 18/ 20 1010.1R  
S OF BLOCK IS 1255 42 N/A 3/ 9  

 
   
.....................KEY......................
 
 
SKY/WX - SKY CONDITION/PRESENT WEATHER  
TMP - TEMPERATURE IN FAHRENHEIT  
DWPT - DEWPOINT IN FAHRENHEIT  
RH - RELATIVE HUMIDITY IN PERCENT  
WIND - DIRECTION AND SPEED IN MPH  
PRES - MEAN SEA LEVEL PRESSURE IN INCHES OF HG  
WCI - WIND CHILL INDEX  
VSB - VISIBILITY IN MILES  
HX - HEAT INDEX  
TC - TEMPERATURE IN CELSIUS  
VRB - VARIABLE WIND DIRECTION  
N/A - NOT AVAILABLE  
 
 
CLICK HERE TO GO TO PREVIOUS BULLETINS.

The Nexlab MA Page
The Nexlab RI Page
The Nexlab NH Page
The Nexlab CT Page Main Text Page